Погода в Миккели

Финляндия     61°41′18″N   27°13′27″E
темп.,
°C
ветер,
м/с
пор.,
м/с
влажн.,
%
обл.,
%
осадки,
мм/ч
давл.,
гПа
погр.,
м
27 ноября, сб
сб2723:00−8сз2693100 0.0 1002179
02:00−9сз119627 0.0 100437
05:00−10ссз129618 0.0 100651
08:00−10ссв139622 0.0 100857
11:00−8св25885 0.0 1009136
14:00−8ссв268828 0.0 1009199
17:00−9ссв3995100 0.0 1009219
20:00−8св3109599 0.0 1008330
28 ноября, вс
вс2823:00−8св31091100 0.0 1007386
02:00−7ссв41086100 0.0 1006436
05:00−8ссв41179100 0.0 1006444
08:00−8ссв41186100 0.0 1006452
11:00−7ссв41085100 0.0 1007512
14:00−6св41082100 0.0 1007533
17:00−7св31082100 0.0 1008520
20:00−6св3981100 0.0 1009530
29 ноября, пн
пн2923:00−7всв2785100 0.0 1011339
02:00−7всв3985100 0.0 1011473
05:00−7всв398787 0.0 1010380
08:00−8всв399050 0.0 1010370
11:00−7всв3986100 0.0 1010636
14:00−7всв4984100 0.0 1007677
17:00−8всв41182100 0.0 1005623
20:00−8всв41177100 0.0 1002678
30 ноября, вт
вт3023:00−7св51175100 0.0 999795
02:00−7св51276100 0.0 995720
05:00−8ссв51290100 0.4 991652
08:00−8ссв51388100 0.8 989694
11:00−7с51287100 0.2 987806
14:00−7с51186100 0.4 986851
17:00−7с51186100 0.1 985876
20:00−7ссз51188100 0.3 985850
1 декабря, ср
ср123:00−7ссз51085100 0.1 986783
02:00−7ссз51084100 0.1 987837
05:00−9сз51086100 0.0 989667
08:00−10сз5118778 0.1 990605
11:00−8сз5118371 0.0 992845
14:00−7зсз5107812 0.0 992783
17:00−8з410774 0.0 993491
20:00−8з49794 0.0 993367